Regional Weather Roundup
Issued by NWS

Home | Current Version | Previous Version | Graphics & Text | Print | Product List | Glossary On
Versions: 1 2 3 4 5 6 7 8 9 10 11 12 13 14 15 16 17 18 19 20 21 22 23 24 25 26 27 28 29 30 31 32 33 34 35 36 37 38 39 40 41 42 43 44 45 46 47 48 49 50
367
ASUS43 KOAX 300410
RWRNE

WEATHER ROUNDUP FOR NEBRASKA
NATIONAL WEATHER SERVICE OMAHA NE
1100 PM CDT FRI JUL 29 2016

NOTES: SATELLITE DATA IS BEING USED TO AUGMENT CLOUD COVER ABOVE
       12000 FEET.
       "FAIR" INDICATES FEW OR NO CLOUDS BELOW 12,000 FEET WITH NO
       SIGNIFICANT WEATHER AND/OR OBSTRUCTIONS TO VISIBILITY.

  * THESE STATIONS DO NOT REPORT WEATHER SUCH AS RAIN...SNOW OR FOG.

NEZ001>004-019>022-054>056-300500-
NEBRASKA PANHANDLE

CITY           SKY/WX    TMP DP  RH WIND       PRES   REMARKS
SCOTTSBLUFF    CLEAR     61  58  90 E7        30.09R
ALLIANCE       CLOUDY    62  56  80 S7        30.07F
CHADRON        CLEAR     66  60  81 W5        30.03R
KIMBALL        CLOUDY    65  61  86 SE10      30.15R
SIDNEY         CLOUDY    63  58  83 S8        30.12R
$$

NEZ057>060-069>072-079>082-300500-
SOUTHWEST NEBRASKA

CITY           SKY/WX    TMP DP  RH WIND       PRES   REMARKS
NORTH PLATTE   MOCLDY    68  66  93 E6        30.06R
IMPERIAL       PTCLDY    72  63  73 S3        30.08R
LEXINGTON      PTCLDY    70  64  82 E5        30.06R
MCCOOK         CLOUDY    71  65  81 E8        30.07R
OGALLALA       PTCLDY    71  64  78 E6        30.07S
$$

NEZ005>010-023>029-035>040-094-300500-
NORTH CENTRAL NEBRASKA

CITY           SKY/WX    TMP DP  RH WIND       PRES   REMARKS
VALENTINE      CLEAR     68  61  78 E7        30.03F
AINSWORTH      CLOUDY    65  63  90 SE5       30.06S
BROKEN BOW     CLOUDY    66  63  90 E5        30.06R
O`NEILL        PTCLDY    69  60  74 SE5       30.07R
ORD            CLOUDY    67  60  78 E3        30.05R
THEDFORD       CLOUDY    68  63  83 SE6       30.07F
$$

NEZ041-046>049-061>064-073>077-083>087-300500-
SOUTH CENTRAL NEBRASKA

CITY           SKY/WX    TMP DP  RH WIND       PRES   REMARKS
GRAND ISLAND   PTCLDY    68  63  84 E5        30.06R
AURORA         CLEAR     66  65  94 E3        30.05S
HASTINGS       CLOUDY    70  62  76 E6        30.06R
HEBRON         CLEAR     67  63  87 CALM      30.04R
HOLDREGE       CLOUDY    67  64  90 E6        30.07R
KEARNEY *      PTCLDY    66  64  94 E6        30.07R
YORK           CLEAR     64  59  82 CALM      30.05S
$$

NEZ011>018-030>034-042>045-300500-
NORTHEAST NEBRASKA

CITY           SKY/WX    TMP DP  RH WIND       PRES   REMARKS
NORFOLK        CLOUDY    62  57  83 SE3       30.05R
ALBION         PTCLDY    64  59  83 CALM      30.07R
BLAIR          CLEAR     67  63  86 E6        30.05R
FREMONT        CLEAR     69  61  76 E6        30.04S
TEKAMAH        CLEAR     66  61  84 SE3       30.04R
WAYNE          CLOUDY    64  61  90 CALM      30.06R
$$

NEZ050>053-065>068-078-088>093-300500-
SOUTHEAST NEBRASKA

CITY           SKY/WX    TMP DP  RH WIND       PRES   REMARKS
LINCOLN        CLEAR     71  62  73 E8        30.04R
OMAHA EPPLEY   CLEAR     71  61  70 CALM      30.04R
BEATRICE       PTCLDY    67  60  77 CALM      30.03S
FALLS CITY     CLEAR     69  64  84 CALM      30.01R
NEBRASKA CITY  CLEAR     65  65 100 NE6       30.03S
PLATTSMOUTH    CLEAR     66  63  89 E6        30.04S
$$

NEZ044-045-051>053-067-300500-
OMAHA AREA

CITY           SKY/WX    TMP DP  RH WIND       PRES   REMARKS
OMAHA EPPLEY   CLEAR     71  61  70 CALM      30.04R
BLAIR          CLEAR     67  63  86 E6        30.05R
FREMONT        CLEAR     69  61  76 E6        30.04S
MILLARD        CLEAR     72  63  72 E5        30.03S
OFFUTT AFB     CLEAR     67  63  87 NE5       30.02S
PLATTSMOUTH    CLEAR     66  63  89 E6        30.04S
WAHOO          FAIR      67  62  86 E3        30.04S
$$




USA.gov is the U.S. government's official web portal to all federal, state and local government web resources and services.